Simultaneous Nadir Overpasses (SNOs) Predictions

Prediction of SNOs between LANDSAT-8 and NOAA-19 Satellite Orbit:

Table of predicted SNOs for the next 14.0 days since TLE Epoch: 3/1/2016
Index Date (LANDSAT-8) Time (LANDSAT-8) Lat,Lon (LANDSAT-8) SZA (LANDSAT-8 ) Date (NOAA-19) Time (NOAA-19) Lat,Lon (NOAA-19) SZA (NOAA-19 ) Distance(km) Time Diff (sec)
1 03/03/2016 05:48:59 74.33, 96.54 80.89 03/03/2016 05:47:58 74.33, 96.51 80.89 1.17 61
2 03/03/2016 06:38:28 -74.26, -96.00 99.20 03/03/2016 06:38:51 -74.24, -95.99 99.22 2.43 23
3 03/05/2016 11:22:44 -74.33,-166.92 99.98 03/05/2016 11:22:00 -74.32,-166.93 99.99 0.97 44
4 03/05/2016 12:12:11 74.25, 0.53 79.93 03/05/2016 12:13:06 74.26, 0.44 79.95 3.23 55
5 03/07/2016 16:56:27 74.30, -70.41 79.13 03/07/2016 16:56:14 74.31, -70.42 79.14 0.70 13
6 03/07/2016 17:45:56 -74.24, 97.07 100.95 03/07/2016 17:47:08 -74.25, 97.01 100.94 2.44 72
7 03/09/2016 21:40:38 74.56,-140.86 78.54 03/09/2016 21:39:27 74.65,-142.09 78.62 37.69 71
8 03/09/2016 22:30:11 -74.29, 26.13 101.76 03/09/2016 22:30:15 -74.29, 26.17 101.75 1.23 4
9 03/12/2016 03:14:26 -74.39, -44.71 102.51 03/12/2016 03:13:24 -74.38, -44.82 102.52 3.39 62
10 03/12/2016 04:03:53 74.30, 122.73 77.39 03/12/2016 04:04:28 74.27, 122.71 77.36 3.43 35
11 03/14/2016 08:48:09 74.35, 51.75 76.57 03/14/2016 08:47:36 74.34, 51.79 76.56 1.05 33




NCC Satellite Simultaneous Nadir Overpasses (SNOs) Prediction Service
